STARLINK-30507, 57982

Orbit data source: Space-Track

STARLINK-30507, 57982 is a payload satellite owned by SpaceX/Seattle (US) in LEO that was launched on Sat, 30 Sep 2023 UTC via an FALCON 9 launch vehicle from the Air Force Eastern Test Range (AFETR). Payload-class satellites include a variety of spacecraft equipped with specific instruments for various scientific and technological missions. These include communications satellites like Starlink; space stations such as the ISS; scientific satellites like the Hubble; Earth observation satellites from companies like Planet Labs, Umbra, and HawkEye 360; GPS; miniature CubeSats for education and research; and military/defense satellites.

Loading next visibility...
Identifier
57982, 2023-151U
Orbit
LEO
Country
Flag of USUS
Related business
Manufacturer
SpaceX/Seattle
Mission
Operational Commercial Communications
Bus & Motor
STARLINK V2M, Unknown motor
Mass
730 kg wet, ~700 kg dry
Launch date (UTC)
2023-09-30 (3 years ago)
Launch vehicle
FALCON 9
Launch site
Air Force Eastern Test Range (AFETR)
Object type
Payload
Rocket body
Debris
Shape & HBR
Box + 2 Pan, 17.7 m
Radar Cross Section
33.884 m², Large (>1 m²)

Expand to show TLE details & history
Last TLE update: 11 hours ago

TLE from 11 hours ago
0 STARLINK-30507
1 57982U 23151U   26130.01452058 -.00001582  00000-0 -47995-4 0  9996
2 57982  43.0039   7.6353 0001245 269.9694  90.1015 15.27565356144924
Epoch: 2026-05-10T00:20Z
TLE epoch observation values (Epoch: 2026-05-10T00:20:54.578Z)
Latitude
-0°
Longitude
134.58421°
Altitude
482.87 km
Speed
7.626 km/s
True Right ascension
00h 30m 32s
True Declination
0° 00' 00"
Sunlit
Object was in daylight at epoch
Visualization orbit readout
Latitude
Unknown
Longitude
Unknown
Altitude
Unknown
Speed
Unknown
Apparent Right ascension
Unknown
Apparent Declination
Unknown
Sunlit
N/A
Visualization observer readout
Local Sidereal Time
19:51:18
Azimuth
Unknown
Elevation
Unknown
Doppler factor
Unknown
Orbital elements
Apogee altitude
485.892 km
Perigee altitude
484.183 km
Semi-major axis
6,863.174 km
Eccentricity
0.00012
Inclination
43.0039°
RAAN
7.6353°
Arg. of periapsis
269.9694°
True anomaly
90.11577°
Mean anomaly
90.1015°
Eccentric anomaly
90.10863°
Mean motion
3.81729 °/min
Orbital period
94.31 mins
BSTAR
-0.000047995
Loading maneuver chart data...
Computing Atmospheric mass density...
Loading historical data...
Loading historical data...
Loading historical data...
Loading historical data...
Loading historical data...
Loading historical data...
Loading historical data...

Documentation

Showing up to 5 results
|